< < Back
Terminal Aerodrome Forecast


Current Version              Previous Versions:   1  2  3  4  5  6  7  8  9  

Terminal Aerodrome Forecast

434
FTUS44 KBMX 011100
TAFANB
TAF
KANB 011138Z 0112/0212 00000KT P6SM BKN150
     FM011500 20007KT P6SM BKN050
     FM020100 00000KT P6SM SCT250=

Latest METAR

402
SAUS70 KWBC 021356
MTRANB
METAR KANB 021353Z AUTO 00000KT 10SM CLR 27/22 A3012 RMK AO2 SLP189
T02720222


USA.gov is the U.S. government's official web portal to all federal, state and local government web resources and services.